DW6157 Larvik NO current weather conditions

sailwx.info

Wind from 210 at 0 knots gusting 6

Air temperature 13.3° C
Dewpoint 11.9° C

Last reported at 2019-Jun-16 23:00 UTC.
Time now 2019-Jun-17 17:20 UTC

Location: N 59°05' E 010°08'.
View on Google Maps.

See reports from other nearby stations

  
Tides and Currents Weather Stations Pressure Air Temp Water Temp Dewpoint Dewpoint Depression Visibility Wind Speed Wind Dir Waves Ship Positions
date/time (UTC)wind fromknots sea level pressurealtimeterstation pressurevisibilityair tempwater tempwave heightnotes
2019-Jun-16 23:00 210 0 gusting 6 13.3
2019-Jun-16 22:45 235 0 gusting 5 13.3
2019-Jun-16 22:31 240 1 gusting 9 13.3
2019-Jun-16 22:16 225 0 gusting 7 13.3
2019-Jun-16 22:02 219 0 gusting 5 13.9
2019-Jun-16 21:46 200 0 gusting 7 13.9
2019-Jun-16 21:32 310 0 gusting 6 13.9
2019-Jun-16 21:16 238 1 gusting 6 13.9
2019-Jun-16 21:01 210 2 gusting 10 13.9
2019-Jun-16 20:46 205 3 gusting 9 13.9
2019-Jun-16 20:31 245 2 gusting 8 13.9
2019-Jun-16 20:16 205 2 gusting 10 14.4
2019-Jun-16 20:01 200 4 gusting 9 14.4
2019-Jun-16 19:46 215 2 gusting 11 14.4
2019-Jun-16 19:31 195 3 gusting 10 15.0
2019-Jun-16 19:16 210 0 gusting 9 15.0
2019-Jun-16 19:01 205 1 gusting 8 15.6
2019-Jun-16 18:46 205 5 gusting 10 15.6
2019-Jun-16 18:31 194 5 gusting 12 15.6
2019-Jun-16 18:15 195 6 gusting 12 16.1
2019-Jun-16 18:00 236 3 gusting 12 16.1
2019-Jun-16 17:46 200 6 gusting 11 16.7
2019-Jun-16 17:30 219 5 gusting 13 16.7
2019-Jun-16 17:15 210 6 gusting 9 16.7
2019-Jun-16 17:01 200 3 gusting 8 16.7
2019-Jun-16 16:45 181 5 gusting 12 17.2
2019-Jun-16 16:30 191 4 gusting 11 17.8
2019-Jun-16 16:15 200 2 gusting 12 18.3
2019-Jun-16 16:00 216 4 gusting 11 19.4
2019-Jun-16 15:45 205 3 gusting 9 18.9
2019-Jun-16 15:30 200 2 gusting 7 18.3
2019-Jun-16 15:15 229 0 gusting 7 18.3
2019-Jun-16 15:00 214 6 gusting 10 18.3
2019-Jun-16 14:45 210 6 gusting 11 18.3
2019-Jun-16 14:30 220 3 gusting 11 18.3
2019-Jun-16 14:15 196 5 gusting 11 18.3
2019-Jun-16 14:00 227 6 gusting 12 17.8
2019-Jun-16 13:45 205 4 gusting 8 17.2
2019-Jun-16 13:30 210 5 gusting 9 17.2
2019-Jun-16 13:15 200 2 gusting 8 17.8
2019-Jun-16 13:00 200 1 gusting 7 17.2
2019-Jun-16 12:47 254 0 gusting 3 16.7
2019-Jun-16 12:32 214 4 gusting 9 16.1
2019-Jun-16 12:16 210 5 gusting 9 16.1
2019-Jun-16 12:02 222 2 gusting 8 16.7
2019-Jun-16 11:46 217 3 gusting 8 16.7
2019-Jun-16 11:31 205 2 gusting 7 17.2
2019-Jun-16 11:17 218 3 gusting 7 16.7
2019-Jun-16 11:01 235 2 gusting 5 16.1
2019-Jun-16 10:46 210 1 gusting 3 16.1
2019-Jun-16 10:32 210 16.1
2019-Jun-16 10:17 214 16.1
2019-Jun-16 10:01 210 16.1
2019-Jun-16 09:47 205 0 gusting 2 16.1
2019-Jun-16 09:31 195 1 gusting 4 16.1
2019-Jun-16 09:01 225 2 gusting 5 16.7
2019-Jun-16 08:46 205 16.7
2019-Jun-16 08:31 130 16.7
2019-Jun-16 08:16 210 0 gusting 3 17.2
2019-Jun-16 08:01 214 1 gusting 2 17.2
2019-Jun-16 07:46 166 0 gusting 4 17.8
2019-Jun-16 07:31 156 17.8
2019-Jun-16 07:16 221 17.2
2019-Jun-16 07:01 245 17.2
2019-Jun-16 06:46 245 16.7
2019-Jun-16 06:31 245 16.1
2019-Jun-16 06:16 245 16.7
2019-Jun-16 06:01 210 17.2
2019-Jun-16 05:46 319 17.2
2019-Jun-16 05:31 320 16.7
2019-Jun-16 05:16 320 16.7
2019-Jun-16 05:01 320 16.1
2019-Jun-16 04:47 320 16.1
2019-Jun-16 04:31 320 16.1
2019-Jun-16 04:15 320 16.1
2019-Jun-16 04:01 320 16.1
2019-Jun-16 03:45 320 16.1
2019-Jun-16 03:31 210 16.1
2019-Jun-16 03:15 210 16.1
2019-Jun-16 03:00 210 16.1
2019-Jun-16 02:46 210 16.1
2019-Jun-16 02:32 205 16.1
2019-Jun-16 02:15 233 16.1
2019-Jun-16 02:01 270 16.1
2019-Jun-16 01:46 270 16.7
2019-Jun-16 01:30 337 16.7
2019-Jun-16 01:15 337 17.2
2019-Jun-16 01:00 320 17.2
2019-Jun-16 00:45 331 17.2
2019-Jun-16 00:30 360 17.2
2019-Jun-16 00:15 002 17.2
2019-Jun-16 00:01 033 17.2
2019-Jun-15 23:45 343 17.2
2019-Jun-15 23:30 351 17.2
2019-Jun-15 23:15 350 17.2
2019-Jun-15 23:00 353 17.2
2019-Jun-15 22:45 353 17.2
2019-Jun-15 22:30 353 17.8
2019-Jun-15 22:17 353 17.8
2019-Jun-15 22:02 353 17.8
2019-Jun-15 21:46 353 18.3
2019-Jun-15 21:31 260 18.3
2019-Jun-15 21:16 279 17.8
2019-Jun-15 21:01 241 0 gusting 3 18.3
2019-Jun-15 20:48 227 18.3
2019-Jun-15 20:31 302 18.9
2019-Jun-15 20:16 210 0 gusting 4 18.9
2019-Jun-15 20:01 224 20.0
2019-Jun-15 19:46 210 20.6
2019-Jun-15 19:32 210 20.0
2019-Jun-15 19:16 210 20.6
2019-Jun-15 19:01 210 20.6
2019-Jun-15 18:46 237 21.1
2019-Jun-15 18:32 187 4 gusting 9 22.2
2019-Jun-15 18:16 210 23.3
2019-Jun-15 18:01 035 23.3
2019-Jun-15 17:46 035 23.3
2019-Jun-15 17:31 035 23.3
2019-Jun-15 17:16 034 23.3
2019-Jun-15 17:01 044 23.3